Regional Weather Roundup
Issued by NWS

Home | Current Version | Previous Version | Graphics & Text | Print | Product List | Glossary On
Versions: 1 2 3 4 5 6 7 8 9 10 11 12 13 14 15 16 17 18 19 20 21 22 23 24 25 26 27 28 29 30 31 32 33 34 35 36 37 38 39 40 41 42 43 44 45 46 47 48 49 50
000
ASUS45 KBOU 201210
RWRCO

WEATHER ROUNDUP FOR COLORADO
NATIONAL WEATHER SERVICE DENVER/BOULDER CO
500 AM MST MON NOV 20 2017

NOTE: "FAIR" INDICATES FEW OR NO CLOUDS BELOW 12000 FEET WITH NO
SIGNIFICANT WEATHER AND/OR OBSTRUCTIONS TO VISIBILITY.

COZ001>005-013-030-031-201300-
...NORTHWEST COLORADO...

CITY           SKY/WX    TMP DP  RH WIND       PRES   REMARKS
CRAIG          FAIR      20  14  77 SW5       30.12F WCI  13
HAYDEN         FAIR      21  14  74 E17       30.13S WCI   7
MEEKER         FAIR      23  15  71 CALM      30.13F
RABBIT EARS PA FAIR      19   5  53 W12G20    30.13R WCI   7
STEAMBOAT SPGS FAIR      13  11  90 CALM      30.13S
WALDEN         FAIR      27   5  39 S10       30.09S WCI  17
$$

COZ006>008-011-201300-
...WEST CENTRAL VALLEYS...

CITY           SKY/WX    TMP DP  RH WIND       PRES   REMARKS
GRAND JUNCTION FAIR      27  18  69 E5        30.19F WCI  22
MONTROSE       FAIR      25  17  72 SE7       30.22F WCI  17
EAGLE          FAIR      14  11  87 NE3       30.22F
RIFLE          FAIR      19  15  84 CALM      30.23F
DELTA          FAIR      24  15  71 CALM      30.22S
NUCLA          FAIR      27   7  43 E5        30.23F WCI  21
$$

COZ017>023-064>068-201300-
...SOUTHWEST COLORADO...

CITY           SKY/WX    TMP DP  RH WIND       PRES   REMARKS
DURANGO        FAIR      15  10  80 CALM      30.19R
CORTEZ         FAIR      18  10  71 E3        30.20F
PAGOSA SPRINGS FAIR      21  13  72 CALM      30.19S
TELLURIDE      FAIR      29   0  28 SE7       30.24F WCI  22
WOLF CREEK PAS FAIR      27 -11  18 SW8       30.29F WCI  18
$$

COZ009-010-012-014-032>034-037-058>063-201300-
...CENTRAL COLORADO...

CITY           SKY/WX    TMP DP  RH WIND       PRES   REMARKS
ASPEN          FAIR      18   9  68 SW9       30.17F WCI   7
BUENA VISTA    FAIR      20   7  56 CALM      30.07F
COPPER MTN     FAIR      25 -15  17 MISG      30.20S
BERTHOUD PASS  FAIR      19   9  63 NW41G53   30.12R WCI  -2
COTTONWOOD PAS FAIR      41 -26   5 W17G36    30.09S
GUNNISON       FAIR       9   5  84 NE3       30.28F
KREMMLING      FAIR      16  10  79 CALM      30.18S
LEADVILLE      FAIR      25 -11  20 NE7       30.17R WCI  17
MONARCH PASS   FAIR      21  -9  25 W48       30.26S WCI  -1
SALIDA         FAIR      34  -1  22 N16       30.14R WCI  23
SUNLIGHT       FAIR      23  -6  28 SW12G20   30.23F WCI  12
WILKERSON PASS FAIR      27 -15  15 W17G28    30.09F WCI  14
$$

COZ069>075-201300-
...SAN LUIS VALLEY/SANGRE DE CRISTO MOUNTAINS...

CITY           SKY/WX    TMP DP  RH WIND       PRES   REMARKS
ALAMOSA        FAIR       9   4  80 S3        30.17R
DEL NORTE      FAIR      24   3  39 W10       30.18R WCI  14
LA VETA PASS   FAIR      23   3  42 SW32G46     N/A  WCI   5
SAGUACHE       FAIR      19   3  49 W5        30.17S WCI  13
$$

COZ035-036-038>040-201300-
...NORTHERN COLORADO FRONT RANGE...

CITY           SKY/WX    TMP DP  RH WIND       PRES   REMARKS
DENVER INTL AP MOCLDY    41   5  22 SW8       29.86F
DMNS CITY PARK   N/A     38   6  26 E1G15     29.87S
AURORA         PTCLDY    41   5  22 S12       29.87F
FRONT RANGE AP FAIR      36  17  45 S9        29.87S
ERIE MUNI ARPT FAIR      32   9  37 NE7       29.90S WCI  26
BOULDER MUN AP FAIR      43   1  17 N6        29.84S
CENTENNIAL     FAIR      44   3  18 SW7       29.88F
BROOMFIELD     FAIR      54  -8   8 W28G40    29.87S
FORT COLLINS   FAIR      32  13  45 E7        29.83F WCI  26
LONGMONT       NOT AVBL
$$

COZ041-046-047-076>085-087-088-201300-
...PIKES PEAK/PALMER DIVIDE AND SOUTHERN FOOTHILLS...

CITY           SKY/WX    TMP DP  RH WIND       PRES   REMARKS
COLO. SPRINGS  FAIR      42  -1  16 W7        29.93F
A. F. ACADEMY  FAIR      50 -15   6 NW15      29.91F
SCHRIEVER AFB  FAIR      38  -6  15 NE5       29.93F
CHEYENNE MTN   MOCLDY    46  -7  10 S5        29.89F
ELLICOTT       NOT AVBL
FALCON         FAIR      33  -6  19 SE5       29.95S WCI  28
FORT CARSON    FAIR      32   5  31 NW5       29.90S WCI  28
LIMON          FAIR      22  10  60 N7        29.89S WCI  13
MONUMENT HILL  FAIR      36   0  21 SW7       29.95S
CANON CITY     FAIR      45   1  16 NW8       29.94S
WALSENBURG     NOT AVBL
TRINIDAD       FAIR      35   9  33 W12       29.96R WCI  27
$$

COZ042>045-048>051-090-091-201300-
...NORTHEAST COLORADO...

CITY           SKY/WX    TMP DP  RH WIND       PRES   REMARKS
GREELEY ARPT   FAIR      22  17  81 W7        29.85S WCI  13
AKRON          FAIR      39   7  26 SW15      29.82F
BURLINGTON     FAIR      26  13  57 W10       29.85R WCI  16
WRAY           NOT AVBL
YUMA           FAIR      36  14  41 W10       29.81F
STERLING       FAIR      27  19  74 SW6       29.81S WCI  20
HOLYOKE        FAIR      28  16  59 W9        29.80S WCI  20
FORT MORGAN    FAIR      32  11  41 W7        29.84S WCI  26
$$

COZ086-089-092>099-201300-
...SOUTHEAST COLORADO...

CITY           SKY/WX    TMP DP  RH WIND       PRES   REMARKS
PUEBLO         FAIR      28  15  58 E9        29.90R WCI  19
LA JUNTA       FAIR      33  14  45 W5        29.90S WCI  29
LAMAR          FAIR      27  14  58 W10       29.88R WCI  17
SPRINGFIELD      N/A     31  13  47 W12       29.88F WCI  22
$$



USA.gov is the U.S. government's official web portal to all federal, state and local government web resources and services.